DECAYED

STARLINK-1291, 45393 (Decayed)

Orbit data source: Space-Track

STARLINK-1291, 45393 was a payload satellite owned by SpaceX/Seattle (US) in LEO that was launched on Wed, 18 Mar 2020 UTC via an FALCON 9 launch vehicle from the Air Force Eastern Test Range (AFETR). Payload-class satellites include a variety of spacecraft equipped with specific instruments for various scientific and technological missions. These include communications satellites like Starlink; space stations such as the ISS; scientific satellites like the Hubble; Earth observation satellites from companies like Planet Labs, Umbra, and HawkEye 360; GPS; miniature CubeSats for education and research; and military/defense satellites.

Not visible in the next 10 days
Identifier
45393, 2020-019AK
Orbit
Decayed
Country
Flag of USUS
Related business
Manufacturer
SpaceX/Seattle
Mission
Decayed Commercial Communications
Bus & Motor
STARLINK, Unknown motor
Mass
260 kg wet, ~248 kg dry
Launch date (UTC)
2020-03-18 (6 years ago)
Launch vehicle
FALCON 9
Launch site
Air Force Eastern Test Range (AFETR)
Object type
Payload
Rocket body
Debris
Shape & HBR
Box + 1 Pan, 10.1 m
Radar Cross Section
13.562 m², Large (>1 m²)

Expand to show TLE details & history
Last TLE update: 8 months ago

TLE from 8 months ago
0 STARLINK-1291
1 45393U 20019AK  25054.83411447  .55004097  12316-4  20696-2 0  9996
2 45393  53.0335 354.8888 0011711 137.5091 315.1982 16.43063456273386
Epoch: 2025-02-23T20:01Z
TLE epoch observation values (Epoch: 2025-02-23T20:01:07.490Z)
Latitude
53.11339°
Longitude
-5.00907°
Altitude
158.699 km
Speed
7.821 km/s
True Right ascension
05h 56m 55s
True Declination
52° 55' 59"
Sunlit
Object was in full shadow at epoch
Visualization orbit readout
Latitude
Unknown
Longitude
Unknown
Altitude
Unknown
Speed
Unknown
Apparent Right ascension
Unknown
Apparent Declination
Unknown
Sunlit
N/A
Visualization observer readout
Local Sidereal Time
13:38:40
Azimuth
Unknown
Elevation
Unknown
Doppler factor
Unknown
Orbital elements
Apogee altitude
165.61 km
Perigee altitude
150.301 km
Semi-major axis
6,536.093 km
Eccentricity
0.00117
Inclination
53.0335°
RAAN
354.8888°
Arg. of periapsis
137.5091°
True anomaly
315.10354°
Mean anomaly
315.1982°
Eccentric anomaly
315.15088°
Mean motion
4.10739 °/min
Orbital period
87.65 mins
BSTAR
0.0020696
Loading maneuver chart data...
Computing Atmospheric mass density...
Loading historical data...
Loading historical data...
Loading historical data...
Loading historical data...
Loading historical data...
Loading historical data...
Loading historical data...

Documentation

Showing up to 5 results
|